This demonstration page uses our WeatherBlox Daily Observations layout. Learn more.

Left ArrowRight Arrow

Hourly Observations for March 14, 2022

Temp ( °F °C ) Dew Point ( °F °C ) Humidity (%) Winds ( mph kmh ) Pressure ( in mb ) Visibility ( mi km ) Precip ( " mm )
12:53 am 00:53 Clear 50 10 17 -8.3 27 27 SE 14 22 29.85 1011 10 16 0.00 0.00
1:53 am 01:53 Clear 47 8.3 21 -6.1 36 36 SE 10 17 29.84 1011 10 16 0.00 0.00
2:53 am 02:53 Clear 42 5.6 23 -5 47 47 SE 9 15 29.85 1011 10 16 0.00 0.00
3:53 am 03:53 Clear 41 5 25 -3.9 53 53 SSE 9 15 29.83 1010 10 16 0.00 0.00
4:53 am 04:53 Clear 41 5 26 -3.3 55 55 S 8 13 29.82 1010 10 16 0.00 0.00
5:53 am 05:53 Clear 37 2.8 24 -4.4 59 59 NNW 6 9 29.84 1011 10 16 0.00 0.00
6:53 am 06:53 Clear 34 1.1 22 -5.6 61 61 SE 3 6 29.85 1011 10 16 0.00 0.00
7:53 am 07:53 Clear 30 -1.1 19 -7.2 64 64 N 7 11 29.90 1012 10 16 0.00 0.00
8:53 am 08:53 Sunny 43 6.1 15 -9.4 32 32 WNW 7 11 29.90 1013 10 16 0.00 0.00
9:53 am 09:53 Sunny 58 14.4 7 -13.9 13 13 WNW 15 24 29.92 1013 10 16 0.00 0.00
10:53 am 10:53 Sunny 65 18.3 8 -13.3 10 10 W 17 28 29.94 1014 10 16 0.00 0.00
11:53 am 11:53 Sunny 70 21.1 8 -13.3 9 9 NW 25 41 29.95 1014 10 16 0.00 0.00
12:53 pm 12:53 Sunny 72 22.2 9 -12.8 8 8 NW 26 43 29.96 1015 10 16 0.00 0.00
1:53 pm 13:53 Hazy 68 20 21 -6.1 17 17 N 33 54 30.01 1016 4 6 0.00 0.00
2:53 pm 14:53 Sunny 71 21.7 19 -7.2 14 14 N 32 52 30.00 1016 10 16 0.00 0.00
3:53 pm 15:53 Sunny 71 21.7 20 -6.7 14 14 NNW 28 44 30.01 1016 10 16 0.00 0.00
4:53 pm 16:53 Sunny 70 21.1 22 -5.6 16 16 NNW 22 35 30.03 1017 10 16 0.00 0.00
5:53 pm 17:53 Sunny 69 20.6 24 -4.4 18 18 N 21 33 30.08 1019 10 16 0.00 0.00
6:53 pm 18:53 Sunny 67 19.4 22 -5.6 18 18 N 16 26 30.11 1020 10 16 0.00 0.00
7:53 pm 19:53 Sunny 63 17.2 22 -5.6 21 21 N 13 20 30.16 1021 10 16 0.00 0.00
8:53 pm 20:53 Clear 56 13.3 22 -5.6 27 27 N 7 11 30.17 1022 10 16 0.00 0.00
9:53 pm 21:53 Clear 51 10.6 20 -6.7 29 29 NNW 8 13 30.18 1022 10 16 0.00 0.00
10:53 pm 22:53 Clear 49 9.4 19 -7.2 31 31 W 9 15 30.20 1023 10 16 0.00 0.00
11:53 pm 23:53 Clear 46 7.8 17 -8.3 31 31 NW 5 7 30.21 1023 10 16 0.00 0.00

Powered by AerisWeather